AirNav   Pilot Hours Calculator
 
 494 users online  

FA35 Lindbergh's Landing Airport
Miami, Florida, USA

GOING TO MIAMI?


FAA INFORMATION EFFECTIVE 03 NOVEMBER 2022

Location

FAA Identifier: FA35
Lat/Long: 25-37-10.3000N 080-29-19.2000W
25-37.171667N 080-29.320000W
25.6195278,-80.4886667
(estimated)
Elevation: 9 ft. / 3 m (estimated)
Variation: 04W (1995)
From city: 20 miles SW of MIAMI, FL
Time zone: UTC -5 (UTC -4 during Daylight Saving Time)
Zip code: 33187

Airport Operations

Airport use: Private use. Permission required prior to landing
Activation date: 01/1999
Control tower: no
ARTCC: MIAMI CENTER
FSS: MIAMI FLIGHT SERVICE STATION
Attendance: UNATNDD
Wind indicator: yes
Segmented circle: no

Airport Communications

WX ASOS at TMB (3 nm NE): 124.0 (305-235-1332)
WX AWOS-3 at X51 (8 nm SW): 118.375 (305-247-2791)
WX ASOS at MIA (15 nm NE): 119.15 (305-870-0235)

Nearby radio navigation aids

VOR radial/distance  VOR name  Freq  Var
DHPr219/13.2DOLPHIN VORTAC113.9004W
VKZr250/19.7VIRGINIA KEY VOR/DME117.1004W
FLLr219/32.3FORT LAUDERDALE VOR/DME114.4006W

Airport Services

Runway Information

Runway 9/27

Dimensions: 4000 x 70 ft. / 1219 x 21 m
Surface: turf
Runway edge markings: RY 09/27 HAS WHITE MARKERS AT 50 FT INTERVALS ALONG EDGES & AT THLDS.
RUNWAY 9  RUNWAY 27
Traffic pattern: rightleft
Obstructions: 6 ft. fence, 300 ft. from runway35 ft. pline, 900 ft. from runway

Airport Ownership and Management from official FAA records

Ownership: Privately-owned
Owner: GROVELAND AIRSTRIP ASSN -MIAMI MGMT
14275 SW 142 AVE
MIAMI, FL 33186
Phone 305-378-0130
Manager: RAMON L. TORRES
17705 SW 158 ST
MIAMI, FL 33187
Phone (305) 433-0105

Airport Operational Statistics

Aircraft based on the field: 16
Single engine airplanes: 12
Multi engine airplanes: 4
    

Additional Remarks

PILOT BRIEFING & PPR.
RADIO CTC WITH TMB ATCT (118.9) FOR TFC ADVISORIES & TMB ATIS (124.0) FOR RY IN USE & ALTIMETER SETTING.
FOR CD CTC MIAMI APCH AT 305-869-5432.

Instrument Procedures

There are no published instrument procedures at FA35.

Some nearby airports with instrument procedures:

KTMB - Miami Executive Airport (3 nm NE)
X51 - Miami Homestead General Aviation Airport (8 nm SW)
KHST - Homestead Air Reserve Base (10 nm SE)
KMIA - Miami International Airport (15 nm NE)
KOPF - Miami-Opa Locka Executive Airport (21 nm NE)
 
Loc | Ops | Rwys | IFR | FBO | Links
Com | Nav | Svcs | Stats | Notes

Reliance Aviation
AirBoss

 
Area around FA35 (Lindbergh's Landing Airport)
 
Road maps at: MapQuest Bing Google
 
Aerial photo
No photo
 
Sectional chart

 
Airport distance calculator
Flying to Lindbergh's Landing Airport? Find the distance to fly.

From to FA35

Sunrise and sunset
Times for 30-Nov-2022
 Local
(UTC-5)
 Zulu
(UTC)
Morning civil twilight06:2711:27
Sunrise06:5211:52
Sunset17:3022:30
Evening civil twilight17:5522:55

Current date and time
Zulu (UTC)  30-Nov-2022 11:06:39
Local (UTC-5)  30-Nov-2022 06:06:39
 
METAR
KTMB 
4nm NE 
301053Z AUTO 09006KT 10SM CLR 23/22 A3005 RMK AO2 SLP176 T02280222
KHST 
11nm SE 
301055Z AUTO 08005KT 10SM CLR 25/22 A3003 RMK AO2 SLP172 T02490218
KMIA 
14nm NE 
301053Z 10006KT 10SM FEW020 FEW027 24/22 A3005 RMK AO2 SLP177 T02440217 $
TAF
KTMB 
4nm NE 
300858Z 3009/0106 09008KT P6SM FEW025 SCT050 FM301400 12008KT P6SM SCT040 BKN100 FM302100 10007KT P6SM VCTS SCT035CB BKN050 BKN100 FM010200 07004KT P6SM SCT050 SCT100 BKN250
KHST 
11nm SE 
300400Z 3004/0110 09010KT 9999 SCT025 QNH3003INS BECMG 3014/3015 10010KT 9999 SCT025 SCT040 QNH3005INS BECMG 3017/3018 10010G15KT 9999 VCSH SCT025 BKN035 QNH3004INS BECMG 0100/0101 05006KT 9999 NSW SCT025 SCT040 QNH3008INS TX29/3020Z TN22/3011Z
KMIA 
14nm NE 
300858Z 3009/0112 09010KT P6SM FEW025 SCT050 FM301400 13009KT P6SM SCT040 BKN100 FM302100 10007KT P6SM VCTS SCT035CB BKN050 BKN100 FM010200 08005KT P6SM SCT050 SCT100 BKN250
NOTAMs
Click for the latest NOTAMs
NOTAMs are issued by the DoD/FAA and will open in a separate window not controlled by AirNav.

 

 
 

Would you like to see your business listed on this page?

 If your business provides an interesting product or service to pilots, flight crews, aircraft, or users of the Lindbergh's Landing Airport, you should consider listing it here.  To start the listing process, click on the button below
 
Add a business
 

Other Pages about Lindbergh's Landing Airport

Update a link
 
Copyright © AirNav, LLC. All rights reserved. Privacy Policy  Contact